Home > Weather > Kaarst > Past weeks

Flag for Germany Weather for the Past 2 Weeks in Kaarst, North Rhine-Westphalia, Germany

Now
54 °F

Clear.


Feels Like: 50 °F
Forecast: 36 / 59 °F
Wind: 10 mph from Northwest

Location: Monchengladbach Airport

Current Time: May 3, 2016 at 9:24:08 PM

Latest Report: May 3, 2016 at 8:20 PM


Visibility: 10 mi

Pressure: 30.27 "Hg

Humidity: 47%

Dew Point: 34 °F

Location of KaarstLocation

Historic Weather in Kaarst — Graph

°F

Kaarst Temperature Yesterday

Maximum temperature yesterday: 68 °F (at 3:50 PM)
Minimum temperature yesterday: 46 °F (at 8:20 AM)
Average temperature yesterday: 61 °F

High & Low Weather Summary for the Past Weeks

 TemperatureHumidityPressure
High68 °F (May 2, 3:50 PM)100% (Apr 30, 7:50 AM)30.48 "Hg (Apr 30, 7:50 AM)
Low37 °F (Apr 20, 7:50 AM)28% (Apr 21, 5:20 PM)29.50 "Hg (Apr 26, 12:20 PM)
Average50 °F65%30.04 "Hg
* Reported Apr 18 7:20 PM — May 3 7:50 PM, Kaarst, Weather by CustomWeather, © 2016

Note: Actual official high and low records may vary slightly from our data, if they occured in-between our weather recording intervals... More about our weather records

Advertising

Kaarst Weather History for the Previous 24 Hours

Scroll right to see more
 ConditionsComfort  
Time TempWeatherWind HumidityBarometerVisibility
7:50 PM
Tue, May 3
55 °FClear.13 mph44%30.27 "Hg10 mi
7:20 PM57 °FPassing clouds.14 mph41%30.27 "HgN/A
6:50 PM57 °FPassing clouds.13 mph39%30.24 "HgN/A
6:20 PM57 °FPassing clouds.14 mph39%30.24 "HgN/A
5:50 PM57 °FClear.15 mph39%30.24 "Hg10 mi
5:20 PM59 °FClear.15 mph39%30.24 "Hg10 mi
4:50 PM59 °FPassing clouds.14 mph42%30.24 "HgN/A
4:20 PM59 °FClear.15 mph42%30.24 "Hg10 mi
3:50 PM59 °FPassing clouds.16 mph42%30.24 "HgN/A
3:20 PM59 °FPassing clouds.16 mph42%30.21 "HgN/A
2:50 PM59 °FPassing clouds.16 mph51%30.21 "HgN/A
2:20 PM57 °FPassing clouds.17 mph48%30.21 "HgN/A
1:20 PM57 °FPassing clouds.16 mph51%30.21 "HgN/A
12:50 PM57 °FPassing clouds.17 mph55%30.21 "HgN/A
12:20 PM55 °FScattered clouds.17 mph59%30.18 "HgN/A
11:50 AM55 °FScattered clouds.14 mph63%30.18 "HgN/A
11:20 AM55 °FScattered clouds.15 mph72%30.18 "HgN/A
10:50 AM54 °FScattered clouds.14 mph72%30.18 "HgN/A
10:20 AM54 °FScattered clouds.9 mph77%30.15 "HgN/A
9:50 AM52 °FScattered clouds.9 mph82%30.15 "HgN/A
9:20 AM52 °FScattered clouds.10 mph82%30.15 "HgN/A
8:50 AM50 °FScattered clouds.10 mph88%30.15 "HgN/A
7:50 AM48 °FPartly sunny.9 mph94%30.12 "HgN/A
Weather by CustomWeather, © 2016

See weather overviewHow to use our weather pages